This demonstration page uses our WeatherBlox Daily Observations layout. Learn more.

Left ArrowRight Arrow

34.16533, -84.80231

Hourly Observations for August 17, 2022

Temp ( °F °C ) Dew Point ( °F °C ) Humidity (%) Winds ( mph kmh ) Pressure ( in mb ) Visibility ( mi km ) Precip ( " mm )
12:15 am 00:15 Cloudy 73 23 64 18 73 73 NNE 3 6 29.95 1014 10 16 0.00 0.00
12:35 am 00:35 Cloudy 73 23 64 18 73 73 Calm 29.95 1014 10 16 0.00 0.00
12:55 am 00:55 Cloudy 73 23 64 18 73 73 Calm 29.95 1014 10 16 0.00 0.00
3:15 am 03:15 Cloudy 72 22 66 19 83 83 NNE 5 7 29.93 1013 10 16 0.00 0.00
3:35 am 03:35 Cloudy 72 22 66 19 83 83 VRB 3 6 29.93 1013 10 16 0.00 0.00
3:55 am 03:55 Cloudy 72 22 66 19 83 83 Calm 29.93 1013 10 16 0.00 0.00
4:15 am 04:15 Cloudy 72 22 66 19 83 83 Calm 29.93 1013 10 16 0.00 0.00
4:35 am 04:35 Cloudy 72 22 66 19 83 83 Calm 29.93 1013 10 16 0.00 0.00
4:55 am 04:55 Cloudy 72 22 66 19 83 83 Calm 29.94 1014 10 16 0.00 0.00
5:15 am 05:15 Cloudy 72 22 68 20 88 88 Calm 29.94 1014 10 16 0.00 0.00
5:35 am 05:35 Cloudy 72 22 68 20 88 88 Calm 29.94 1014 10 16 0.00 0.00
5:55 am 05:55 Cloudy 72 22 68 20 88 88 Calm 29.94 1014 10 16 0.00 0.00
6:15 am 06:15 Cloudy 72 22 68 20 88 88 Calm 29.94 1014 10 16 0.00 0.00
6:35 am 06:35 Cloudy 72 22 68 20 88 88 Calm 29.95 1014 10 16 0.00 0.00
6:55 am 06:55 Cloudy 72 22 68 20 88 88 Calm 29.96 1014 10 16 0.00 0.00
7:15 am 07:15 Cloudy 72 22 68 20 88 88 Calm 29.97 1015 10 16 0.00 0.00
7:35 am 07:35 Cloudy 72 22 68 20 88 88 Calm 29.98 1015 10 16 0.00 0.00
7:55 am 07:55 Cloudy 72 22 68 20 88 88 Calm 29.98 1015 10 16 0.00 0.00
8:15 am 08:15 Cloudy 72 22 68 20 88 88 Calm 29.99 1015 10 16 0.00 0.00
8:35 am 08:35 Cloudy 73 23 68 20 83 83 E 5 7 29.98 1015 10 16 0.00 0.00
8:55 am 08:55 Mostly Cloudy 73 23 68 20 83 83 ENE 3 6 30.00 1016 10 16 0.00 0.00
9:15 am 09:15 Cloudy 73 23 68 20 83 83 VRB 5 7 30.00 1016 10 16 0.00 0.00
9:35 am 09:35 Mostly Cloudy 73 23 68 20 83 83 E 6 9 30.00 1016 10 16 0.00 0.00
9:55 am 09:55 Cloudy 73 23 68 20 83 83 E 6 9 30.00 1016 10 16 0.00 0.00
10:15 am 10:15 Mostly Cloudy 73 23 68 20 83 83 E 6 9 30.00 1016 10 16 0.00 0.00
10:35 am 10:35 Cloudy 75 24 68 20 78 78 E 7 11 30.00 1016 10 16 0.00 0.00
10:55 am 10:55 Mostly Cloudy 75 24 68 20 78 78 ESE 6 9 30.00 1016 10 16 0.00 0.00
11:15 am 11:15 Mostly Sunny 79 26 70 21 74 74 E 8 13 30.01 1016 10 16 0.00 0.00
11:35 am 11:35 Mostly Sunny 79 26 68 20 70 70 VRB 5 7 30.00 1016 10 16 0.00 0.00
11:55 am 11:55 Mostly Sunny 79 26 66 19 65 65 Calm 30.00 1016 10 16 0.00 0.00
12:15 pm 12:15 Mostly Sunny 81 27 68 20 66 66 Calm 29.99 1015 10 16 0.00 0.00
12:35 pm 12:35 Sunny 82 28 66 19 58 58 VRB 3 6 29.98 1015 10 16 0.00 0.00
12:55 pm 12:55 Mostly Sunny 81 27 66 19 62 62 Calm 29.99 1015 10 16 0.00 0.00
1:15 pm 13:15 Partly Cloudy 81 27 66 19 62 62 Calm 29.99 1015 10 16 0.00 0.00
1:35 pm 13:35 Mostly Sunny 81 27 66 19 62 62 Calm 29.99 1015 10 16 0.00 0.00
1:55 pm 13:55 Sunny 81 27 64 18 58 58 Calm 29.97 1015 10 16 0.00 0.00
2:15 pm 14:15 Sunny 81 27 66 19 62 62 Calm 29.97 1015 10 16 0.00 0.00
2:35 pm 14:35 Mostly Sunny 81 27 66 19 62 62 W 8 13 29.97 1015 10 16 0.00 0.00
2:55 pm 14:55 Mostly Sunny 82 28 68 20 62 62 VRB 5 7 29.96 1015 10 16 0.00 0.00
3:15 pm 15:15 Mostly Sunny 81 27 66 19 62 62 Calm 29.96 1015 10 16 0.00 0.00
3:35 pm 15:35 Mostly Sunny 82 28 68 20 62 62 NNW 3 6 29.95 1014 10 16 0.00 0.00
3:55 pm 15:55 Sunny 81 27 66 19 62 62 Calm 29.94 1014 10 16 0.00 0.00
4:15 pm 16:15 Sunny 81 27 66 19 62 62 Calm 29.94 1014 10 16 0.00 0.00
4:35 pm 16:35 Sunny 81 27 66 19 62 62 Calm 29.94 1014 10 16 0.00 0.00
4:55 pm 16:55 Sunny 81 27 66 19 62 62 Calm 29.93 1014 10 16 0.00 0.00
5:15 pm 17:15 Sunny 81 27 66 19 62 62 W 6 9 29.93 1014 10 16 0.00 0.00
5:35 pm 17:35 Sunny 81 27 66 19 62 62 WNW 5 7 29.93 1014 10 16 0.00 0.00
5:55 pm 17:55 Sunny with Light Rain 81 27 68 20 66 66 W 5 7 29.92 1013 10 16 0.00 0.00
6:15 pm 18:15 Sunny with Light Rain 79 26 68 20 70 70 W 5 7 29.93 1013 10 16 0.00 0.00
6:35 pm 18:35 Partly Cloudy 79 26 68 20 70 70 VRB 6 9 29.93 1013 10 16 0.00 0.00
6:55 pm 18:55 Mostly Cloudy 79 26 68 20 70 70 VRB 3 6 29.92 1013 10 16 0.00 0.00
7:15 pm 19:15 Mostly Cloudy 77 25 68 20 74 74 W 3 6 29.93 1013 10 16 0.00 0.00
7:35 pm 19:35 Cloudy 77 25 70 21 79 79 Calm 29.93 1013 10 16 0.00 0.00
7:55 pm 19:55 Cloudy 77 25 70 21 79 79 W 5 7 29.94 1014 10 16 0.00 0.00
8:15 pm 20:15 Cloudy 77 25 70 21 79 79 W 3 6 29.94 1014 10 16 0.00 0.00
8:35 pm 20:35 Cloudy 77 25 70 21 79 79 WSW 5 7 29.95 1014 10 16 0.00 0.00
8:55 pm 20:55 Cloudy 75 24 70 21 83 83 Calm 29.95 1014 10 16 0.00 0.00
9:15 pm 21:15 Cloudy 75 24 70 21 83 83 Calm 29.95 1014 10 16 0.00 0.00
9:35 pm 21:35 Cloudy 75 24 70 21 83 83 Calm 29.96 1015 10 16 0.00 0.00
9:55 pm 21:55 Cloudy 75 24 70 21 83 83 Calm 29.96 1015 10 16 0.00 0.00
10:15 pm 22:15 Cloudy 75 24 70 21 83 83 Calm 29.97 1015 10 16 0.00 0.00
10:35 pm 22:35 Cloudy 75 24 70 21 83 83 Calm 29.97 1015 10 16 0.00 0.00
10:55 pm 22:55 Cloudy 75 24 70 21 83 83 Calm 29.97 1015 10 16 0.00 0.00
11:15 pm 23:15 Cloudy 73 23 70 21 89 89 SW 3 6 29.97 1015 10 16 0.00 0.00
11:35 pm 23:35 Cloudy 73 23 70 21 89 89 Calm 29.97 1015 10 16 0.00 0.00
11:55 pm 23:55 Cloudy 73 23 70 21 89 89 Calm 29.97 1015 10 16 0.00 0.00

Powered by AerisWeather